#Datum;Uhrzeit;WR;Pac;DaySum;Status;WR;Pac;DaySum;Status;Pdc1;Udc;Temp;WR;Pac;DaySum;Status;Pdc1;Udc;Temp;WR;Pac;DaySum;Status;Pdc1;Udc;Temp;WR;Pac;DaySum;Status;Pdc1;Pdc2;Udc1;Udc2;Temp;WR;Pac;DaySum;Status;Pdc1;Pdc2;Udc1;Udc2;Temp;WR;Pac;DaySum;Status;Pdc1;Udc;Temp;WR;Pac;DaySum;Status;Pdc1;Udc;Temp;WR;Pac;DaySum;Status;Pdc1;Udc;Temp
21.11.20;23:55:00;1;517;12374;0;2;0;14916;0;0;0;0;3;0;9878;0;0;0;0;4;0;10976;0;0;0;0;5;0;0;0;0;0;0;0;0;6;0;27240;0;0;0;0;0;0;7;0;25151;0;0;0;0;8;0;24539;0;0;0;0;9;0;13025;0;0;0;0
21.11.20;23:50:00;1;456;12332;0;2;0;14916;0;0;0;0;3;0;9878;0;0;0;0;4;0;10976;0;0;0;0;5;0;0;0;0;0;0;0;0;6;0;27240;0;0;0;0;0;0;7;0;25151;0;0;0;0;8;0;24539;0;0;0;0;9;0;13025;0;0;0;0
21.11.20;23:45:00;1;453;12294;0;2;0;14916;0;0;0;0;3;0;9878;0;0;0;0;4;0;10976;0;0;0;0;5;0;0;0;0;0;0;0;0;6;0;27240;0;0;0;0;0;0;7;0;25151;0;0;0;0;8;0;24539;0;0;0;0;9;0;13025;0;0;0;0
21.11.20;23:40:00;1;2210;12249;0;2;0;14916;0;0;0;0;3;0;9878;0;0;0;0;4;0;10976;0;0;0;0;5;0;0;0;0;0;0;0;0;6;0;27240;0;0;0;0;0;0;7;0;25151;0;0;0;0;8;0;24539;0;0;0;0;9;0;13025;0;0;0;0
21.11.20;23:35:00;1;2219;12065;0;2;0;14916;0;0;0;0;3;0;9878;0;0;0;0;4;0;10976;0;0;0;0;5;0;0;0;0;0;0;0;0;6;0;27240;0;0;0;0;0;0;7;0;25151;0;0;0;0;8;0;24539;0;0;0;0;9;0;13025;0;0;0;0
21.11.20;23:30:00;1;2292;11880;0;2;0;14916;0;0;0;0;3;0;9878;0;0;0;0;4;0;10976;0;0;0;0;5;0;0;0;0;0;0;0;0;6;0;27240;0;0;0;0;0;0;7;0;25151;0;0;0;0;8;0;24539;0;0;0;0;9;0;13025;0;0;0;0
21.11.20;23:25:00;1;1068;11690;0;2;0;14916;0;0;0;0;3;0;9878;0;0;0;0;4;0;10976;0;0;0;0;5;0;0;0;0;0;0;0;0;6;0;27240;0;0;0;0;0;0;7;0;25151;0;0;0;0;8;0;24539;0;0;0;0;9;0;13025;0;0;0;0
21.11.20;23:20:00;1;695;11589;0;2;0;14916;0;0;0;0;3;0;9878;0;0;0;0;4;0;10976;0;0;0;0;5;0;0;0;0;0;0;0;0;6;0;27240;0;0;0;0;0;0;7;0;25151;0;0;0;0;8;0;24539;0;0;0;0;9;0;13025;0;0;0;0
21.11.20;23:15:00;1;877;11532;0;2;0;14916;0;0;0;0;3;0;9878;0;0;0;0;4;0;10976;0;0;0;0;5;0;0;0;0;0;0;0;0;6;0;27240;0;0;0;0;0;0;7;0;25151;0;0;0;0;8;0;24539;0;0;0;0;9;0;13025;0;0;0;0
21.11.20;23:10:00;1;734;11472;0;2;0;14916;0;0;0;0;3;0;9878;0;0;0;0;4;0;10976;0;0;0;0;5;0;0;0;0;0;0;0;0;6;0;27240;0;0;0;0;0;0;7;0;25151;0;0;0;0;8;0;24539;0;0;0;0;9;0;13025;0;0;0;0
21.11.20;23:05:00;1;763;11411;0;2;0;14916;0;0;0;0;3;0;9878;0;0;0;0;4;0;10976;0;0;0;0;5;0;0;0;0;0;0;0;0;6;0;27240;0;0;0;0;0;0;7;0;25151;0;0;0;0;8;0;24539;0;0;0;0;9;0;13025;0;0;0;0
21.11.20;23:00:00;1;710;11347;0;2;0;14916;0;0;0;0;3;0;9878;0;0;0;0;4;0;10976;0;0;0;0;5;0;0;0;0;0;0;0;0;6;0;27240;0;0;0;0;0;0;7;0;25151;0;0;0;0;8;0;24539;0;0;0;0;9;0;13025;0;0;0;0
21.11.20;22:55:00;1;761;11287;0;2;0;14916;0;0;0;0;3;0;9878;0;0;0;0;4;0;10976;0;0;0;0;5;0;0;0;0;0;0;0;0;6;0;27240;2;0;0;0;0;0;7;0;25151;0;0;0;0;8;0;24539;0;0;0;0;9;0;13025;0;0;0;0
21.11.20;22:50:00;1;2020;11224;0;2;0;14916;0;0;0;0;3;0;9878;0;0;0;0;4;0;10976;0;0;0;0;5;0;0;0;0;0;0;0;0;6;0;27240;2;0;0;0;0;0;7;0;25151;0;0;0;0;8;0;24539;0;0;0;0;9;0;13025;0;0;0;0
21.11.20;22:45:00;1;1437;11085;0;2;0;14916;0;0;0;0;3;0;9878;0;0;0;0;4;0;10976;0;0;0;0;5;0;0;0;0;0;0;0;0;6;0;27240;2;0;0;0;0;0;7;0;25151;0;0;0;0;8;0;24539;0;0;0;0;9;0;13025;0;0;0;0
21.11.20;22:40:00;1;1290;10957;0;2;0;14916;0;0;0;0;3;0;9878;0;0;0;0;4;0;10976;0;0;0;0;5;0;0;0;0;0;0;0;0;6;0;27240;2;0;0;0;0;0;7;0;25151;0;0;0;0;8;0;24539;0;0;0;0;9;0;13025;0;0;0;0
21.11.20;22:35:00;1;1090;10869;0;2;0;14916;0;0;0;0;3;0;9878;0;0;0;0;4;0;10976;0;0;0;0;5;0;0;0;0;0;0;0;0;6;0;27240;2;0;0;0;0;0;7;0;25151;0;0;0;0;8;0;24539;0;0;0;0;9;0;13025;0;0;0;0
21.11.20;22:30:00;1;1759;10737;0;2;0;14916;0;0;0;0;3;0;9878;0;0;0;0;4;0;10976;0;0;0;0;5;0;0;0;0;0;0;0;0;6;0;27240;2;0;0;0;0;0;7;0;25151;0;0;0;0;8;0;24539;0;0;0;0;9;0;13025;0;0;0;0
21.11.20;22:25:00;1;778;10606;0;2;0;14916;0;0;0;0;3;0;9878;0;0;0;0;4;0;10976;0;0;0;0;5;0;0;0;0;0;0;0;0;6;0;27240;2;0;0;0;0;0;7;0;25151;0;0;0;0;8;0;24539;0;0;0;0;9;0;13025;0;0;0;0
21.11.20;22:20:00;1;1568;10540;0;2;0;14916;0;0;0;0;3;0;9878;0;0;0;0;4;0;10976;0;0;0;0;5;0;0;0;0;0;0;0;0;6;0;27240;2;0;0;0;0;0;7;0;25151;0;0;0;0;8;0;24539;0;0;0;0;9;0;13025;0;0;0;0
21.11.20;22:15:00;1;2141;10402;0;2;0;14916;0;0;0;0;3;0;9878;0;0;0;0;4;0;10976;0;0;0;0;5;0;0;0;0;0;0;0;0;6;0;27240;2;0;0;0;0;0;7;0;25151;0;0;0;0;8;0;24539;0;0;0;0;9;0;13025;0;0;0;0
21.11.20;22:10:00;1;1340;10258;0;2;0;14916;0;0;0;0;3;0;9878;0;0;0;0;4;0;10976;0;0;0;0;5;0;0;0;0;0;0;0;0;6;0;27240;2;0;0;0;0;0;7;0;25151;0;0;0;0;8;0;24539;0;0;0;0;9;0;13025;0;0;0;0
21.11.20;22:05:00;1;1417;10137;0;2;0;14916;0;0;0;0;3;0;9878;0;0;0;0;4;0;10976;0;0;0;0;5;0;0;0;0;0;0;0;0;6;0;27240;2;0;0;0;0;0;7;0;25151;0;0;0;0;8;0;24539;0;0;0;0;9;0;13025;0;0;0;0
21.11.20;22:00:00;1;1401;10000;0;2;0;14916;0;0;0;0;3;0;9878;0;0;0;0;4;0;10976;0;0;0;0;5;0;0;0;0;0;0;0;0;6;0;27240;2;0;0;0;0;0;7;0;25151;0;0;0;0;8;0;24539;0;0;0;0;9;0;13025;0;0;0;0
21.11.20;21:55:00;1;1919;9857;0;2;0;14916;0;0;0;0;3;0;9878;0;0;0;0;4;0;10976;0;0;0;0;5;0;0;0;0;0;0;0;0;6;0;27240;2;0;0;0;0;0;7;0;25151;0;0;0;0;8;0;24539;0;0;0;0;9;0;13025;0;0;0;0
21.11.20;21:50:00;1;961;9713;0;2;0;14916;0;0;0;0;3;0;9878;0;0;0;0;4;0;10976;0;0;0;0;5;0;0;0;0;0;0;0;0;6;0;27240;2;0;0;0;0;0;7;0;25151;0;0;0;0;8;0;24539;0;0;0;0;9;0;13025;0;0;0;0
21.11.20;21:45:00;1;2251;9635;0;2;0;14916;0;0;0;0;3;0;9878;0;0;0;0;4;0;10976;0;0;0;0;5;0;0;0;0;0;0;0;0;6;0;27240;2;0;0;0;0;0;7;0;25151;0;0;0;0;8;0;24539;0;0;0;0;9;0;13025;0;0;0;0
21.11.20;21:40:00;1;1771;9409;0;2;0;14916;0;0;0;0;3;0;9878;0;0;0;0;4;0;10976;0;0;0;0;5;0;0;0;0;0;0;0;0;6;0;27240;2;0;0;0;0;0;7;0;25151;0;0;0;0;8;0;24539;0;0;0;0;9;0;13025;0;0;0;0
21.11.20;21:35:00;1;1513;9265;0;2;0;14916;0;0;0;0;3;0;9878;0;0;0;0;4;0;10976;0;0;0;0;5;0;0;0;0;0;0;0;0;6;0;27240;2;0;0;0;0;0;7;0;25151;0;0;0;0;8;0;24539;0;0;0;0;9;0;13025;0;0;0;0
21.11.20;21:30:00;1;2105;9137;0;2;0;14916;0;0;0;0;3;0;9878;0;0;0;0;4;0;10976;0;0;0;0;5;0;0;0;0;0;0;0;0;6;0;27240;2;0;0;0;0;0;7;0;25151;0;0;0;0;8;0;24539;0;0;0;0;9;0;13025;0;0;0;0
21.11.20;21:25:00;1;1084;8978;0;2;0;14916;0;0;0;0;3;0;9878;0;0;0;0;4;0;10976;0;0;0;0;5;0;0;0;0;0;0;0;0;6;0;27240;2;0;0;0;0;0;7;0;25151;0;0;0;0;8;0;24539;0;0;0;0;9;0;13025;0;0;0;0
21.11.20;21:20:00;1;2123;8887;0;2;0;14916;0;0;0;0;3;0;9878;0;0;0;0;4;0;10976;0;0;0;0;5;0;0;0;0;0;0;0;0;6;0;27240;2;0;0;0;0;0;7;0;25151;0;0;0;0;8;0;24539;0;0;0;0;9;0;13025;0;0;0;0
21.11.20;21:15:00;1;961;8730;0;2;0;14916;0;0;0;0;3;0;9878;0;0;0;0;4;0;10976;0;0;0;0;5;0;0;0;0;0;0;0;0;6;0;27240;2;0;0;0;0;0;7;0;25151;0;0;0;0;8;0;24539;0;0;0;0;9;0;13025;0;0;0;0
21.11.20;21:10:00;1;1364;8650;0;2;0;14916;0;0;0;0;3;0;9878;0;0;0;0;4;0;10976;0;0;0;0;5;0;0;0;0;0;0;0;0;6;0;27240;2;0;0;0;0;0;7;0;25151;0;0;0;0;8;0;24539;0;0;0;0;9;0;13025;0;0;0;0
21.11.20;21:05:00;1;1426;8501;0;2;0;14916;0;0;0;0;3;0;9878;0;0;0;0;4;0;10976;0;0;0;0;5;0;0;0;0;0;0;0;0;6;0;27240;2;0;0;0;0;0;7;0;25151;0;0;0;0;8;0;24539;0;0;0;0;9;0;13025;0;0;0;0
21.11.20;21:00:00;1;980;8388;0;2;0;14916;0;0;0;0;3;0;9878;0;0;0;0;4;0;10976;0;0;0;0;5;0;0;0;0;0;0;0;0;6;0;27240;2;0;0;0;0;0;7;0;25151;0;0;0;0;8;0;24539;0;0;0;0;9;0;13025;0;0;0;0
21.11.20;20:55:00;1;1466;8289;0;2;0;14916;0;0;0;0;3;0;9878;0;0;0;0;4;0;10976;0;0;0;0;5;0;0;0;0;0;0;0;0;6;0;27240;2;0;0;0;0;0;7;0;25151;0;0;0;0;8;0;24539;0;0;0;0;9;0;13025;0;0;0;0
21.11.20;20:50:00;1;1908;8150;0;2;0;14916;0;0;0;0;3;0;9878;0;0;0;0;4;0;10976;0;0;0;0;5;0;0;0;0;0;0;0;0;6;0;27240;2;0;0;0;0;0;7;0;25151;0;0;0;0;8;0;24539;0;0;0;0;9;0;13025;0;0;0;0
21.11.20;20:45:00;1;1428;8004;0;2;0;14916;0;0;0;0;3;0;9878;0;0;0;0;4;0;10976;0;0;0;0;5;0;0;0;0;0;0;0;0;6;0;27240;2;0;0;0;0;0;7;0;25151;0;0;0;0;8;0;24539;0;0;0;0;9;0;13025;0;0;0;0
21.11.20;20:40:00;1;1299;7876;0;2;0;14916;0;0;0;0;3;0;9878;0;0;0;0;4;0;10976;0;0;0;0;5;0;0;0;0;0;0;0;0;6;0;27240;2;0;0;0;0;0;7;0;25151;0;0;0;0;8;0;24539;0;0;0;0;9;0;13025;0;0;0;0
21.11.20;20:35:00;1;1104;7762;0;2;0;14916;0;0;0;0;3;0;9878;0;0;0;0;4;0;10976;0;0;0;0;5;0;0;0;0;0;0;0;0;6;0;27240;2;0;0;0;0;0;7;0;25151;0;0;0;0;8;0;24539;0;0;0;0;9;0;13025;0;0;0;0
21.11.20;20:30:00;1;1747;7635;0;2;0;14916;0;0;0;0;3;0;9878;0;0;0;0;4;0;10976;0;0;0;0;5;0;0;0;0;0;0;0;0;6;0;27240;2;0;0;0;0;0;7;0;25151;0;0;0;0;8;0;24539;0;0;0;0;9;0;13025;0;0;0;0
21.11.20;20:25:00;1;2051;7500;0;2;0;14916;0;0;0;0;3;0;9878;0;0;0;0;4;0;10976;0;0;0;0;5;0;0;0;0;0;0;0;0;6;0;27240;2;0;0;0;0;0;7;0;25151;0;0;0;0;8;0;24539;0;0;0;0;9;0;13025;0;0;0;0
21.11.20;20:20:00;1;772;7356;0;2;0;14916;0;0;0;0;3;0;9878;0;0;0;0;4;0;10976;0;0;0;0;5;0;0;0;0;0;0;0;0;6;0;27240;2;0;0;0;0;0;7;0;25151;0;0;0;0;8;0;24539;0;0;0;0;9;0;13025;0;0;0;0
21.11.20;20:15:00;1;3670;7292;0;2;0;14916;0;0;0;0;3;0;9878;0;0;0;0;4;0;10976;0;0;0;0;5;0;0;0;0;0;0;0;0;6;0;27240;2;0;0;0;0;0;7;0;25151;0;0;0;0;8;0;24539;0;0;0;0;9;0;13025;0;0;0;0
21.11.20;20:10:00;1;1430;7046;0;2;0;14916;0;0;0;0;3;0;9878;0;0;0;0;4;0;10976;0;0;0;0;5;0;0;0;0;0;0;0;0;6;0;27240;2;0;0;0;0;0;7;0;25151;0;0;0;0;8;0;24539;0;0;0;0;9;0;13025;0;0;0;0
21.11.20;20:05:00;1;636;6885;0;2;0;14916;0;0;0;0;3;0;9878;0;0;0;0;4;0;10976;0;0;0;0;5;0;0;0;0;0;0;0;0;6;0;27240;2;0;0;0;0;0;7;0;25151;0;0;0;0;8;0;24539;0;0;0;0;9;0;13025;0;0;0;0
21.11.20;20:00:00;1;736;6830;0;2;0;14916;0;0;0;0;3;0;9878;0;0;0;0;4;0;10976;0;0;0;0;5;0;0;0;0;0;0;0;0;6;0;27240;2;0;0;0;0;0;7;0;25151;0;0;0;0;8;0;24539;0;0;0;0;9;0;13025;0;0;0;0
21.11.20;19:55:00;1;730;6769;0;2;0;14916;0;0;0;0;3;0;9878;0;0;0;0;4;0;10976;0;0;0;0;5;0;0;0;0;0;0;0;0;6;0;27240;2;0;0;0;0;0;7;0;25151;0;0;0;0;8;0;24539;0;0;0;0;9;0;13025;0;0;0;0
21.11.20;19:50:00;1;780;6708;0;2;0;14916;0;0;0;0;3;0;9878;0;0;0;0;4;0;10976;0;0;0;0;5;0;0;0;0;0;0;0;0;6;0;27240;2;0;0;0;0;0;7;0;25151;0;0;0;0;8;0;24539;0;0;0;0;9;0;13025;0;0;0;0
21.11.20;19:45:00;1;677;6642;0;2;0;14916;0;0;0;0;3;0;9878;0;0;0;0;4;0;10976;0;0;0;0;5;0;0;0;0;0;0;0;0;6;0;27240;2;0;0;0;0;0;7;0;25151;0;0;0;0;8;0;24539;0;0;0;0;9;0;13025;0;0;0;0
21.11.20;19:40:00;1;776;6583;0;2;0;14916;0;0;0;0;3;0;9878;0;0;0;0;4;0;10976;0;0;0;0;5;0;0;0;0;0;0;0;0;6;0;27240;2;0;0;0;0;0;7;0;25151;0;0;0;0;8;0;24539;0;0;0;0;9;0;13025;0;0;0;0
21.11.20;19:35:00;1;635;6518;0;2;0;14916;0;0;0;0;3;0;9878;0;0;0;0;4;0;10976;0;0;0;0;5;0;0;0;0;0;0;0;0;6;0;27240;2;0;0;0;0;0;7;0;25151;0;0;0;0;8;0;24539;0;0;0;0;9;0;13025;0;0;0;0
21.11.20;19:30:00;1;342;6460;0;2;0;14916;0;0;0;0;3;0;9878;0;0;0;0;4;0;10976;0;0;0;0;5;0;0;0;0;0;0;0;0;6;0;27240;2;0;0;0;0;0;7;0;25151;0;0;0;0;8;0;24539;0;0;0;0;9;0;13025;0;0;0;0
21.11.20;19:25:00;1;356;6434;0;2;0;14916;0;0;0;0;3;0;9878;0;0;0;0;4;0;10976;0;0;0;0;5;0;0;0;0;0;0;0;0;6;0;27240;2;0;0;0;0;0;7;0;25151;0;0;0;0;8;0;24539;0;0;0;0;9;0;13025;0;0;0;0
21.11.20;19:20:00;1;376;6398;0;2;0;14916;0;0;0;0;3;0;9878;0;0;0;0;4;0;10976;0;0;0;0;5;0;0;0;0;0;0;0;0;6;0;27240;2;0;0;0;0;0;7;0;25151;0;0;0;0;8;0;24539;0;0;0;0;9;0;13025;0;0;0;0
21.11.20;19:15:00;1;258;6369;0;2;0;14916;0;0;0;0;3;0;9878;0;0;0;0;4;0;10976;0;0;0;0;5;0;0;0;0;0;0;0;0;6;0;27240;2;0;0;0;0;0;7;0;25151;0;0;0;0;8;0;24539;0;0;0;0;9;0;13025;0;0;0;0
21.11.20;19:10:00;1;324;6347;0;2;0;14916;0;0;0;0;3;0;9878;0;0;0;0;4;0;10976;0;0;0;0;5;0;0;0;0;0;0;0;0;6;0;27240;2;0;0;0;0;0;7;0;25151;0;0;0;0;8;0;24539;0;0;0;0;9;0;13025;0;0;0;0
21.11.20;19:05:00;1;362;6321;0;2;0;14916;0;0;0;0;3;0;9878;0;0;0;0;4;0;10976;0;0;0;0;5;0;0;0;0;0;0;0;0;6;0;27240;2;0;0;0;0;0;7;0;25151;0;0;0;0;8;0;24539;0;0;0;0;9;0;13025;0;0;0;0
21.11.20;19:00:00;1;368;6290;0;2;0;14916;0;0;0;0;3;0;9878;0;0;0;0;4;0;10976;0;0;0;0;5;0;0;0;0;0;0;0;0;6;0;27240;2;0;0;0;0;0;7;0;25151;0;0;0;0;8;0;24539;0;0;0;0;9;0;13025;0;0;0;0
21.11.20;18:55:00;1;333;6260;0;2;0;14916;0;0;0;0;3;0;9878;0;0;0;0;4;0;10976;0;0;0;0;5;0;0;0;0;0;0;0;0;6;0;27240;2;0;0;0;0;0;7;0;25151;0;0;0;0;8;0;24539;0;0;0;0;9;0;13025;0;0;0;0
21.11.20;18:50:00;1;294;6231;0;2;0;14916;0;0;0;0;3;0;9878;0;0;0;0;4;0;10976;0;0;0;0;5;0;0;0;0;0;0;0;0;6;0;27240;2;0;0;0;0;0;7;0;25151;0;0;0;0;8;0;24539;0;0;0;0;9;0;13025;0;0;0;0
21.11.20;18:45:00;1;258;6207;0;2;0;14916;0;0;0;0;3;0;9878;0;0;0;0;4;0;10976;0;0;0;0;5;0;0;0;0;0;0;0;0;6;0;27240;2;0;0;0;0;0;7;0;25151;0;0;0;0;8;0;24539;0;0;0;0;9;0;13025;0;0;0;0
21.11.20;18:40:00;1;260;6185;0;2;0;14916;0;0;0;0;3;0;9878;0;0;0;0;4;0;10976;0;0;0;0;5;0;0;0;0;0;0;0;0;6;0;27240;2;0;0;0;0;0;7;0;25151;0;0;0;0;8;0;24539;0;0;0;0;9;0;13025;0;0;0;0
21.11.20;18:35:00;1;260;6163;0;2;0;14916;0;0;0;0;3;0;9878;0;0;0;0;4;0;10976;0;0;0;0;5;0;0;0;0;0;0;0;0;6;0;27240;2;0;0;0;0;0;7;0;25151;0;0;0;0;8;0;24539;0;0;0;0;9;0;13025;0;0;0;0
21.11.20;18:30:00;1;258;6142;0;2;0;14916;0;0;0;0;3;0;9878;0;0;0;0;4;0;10976;0;0;0;0;5;0;0;0;0;0;0;0;0;6;0;27240;2;0;0;0;0;0;7;0;25151;0;0;0;0;8;0;24539;0;0;0;0;9;0;13025;0;0;0;0
21.11.20;18:25:00;1;294;6120;0;2;0;14916;0;0;0;0;3;0;9878;0;0;0;0;4;0;10976;0;0;0;0;5;0;0;0;0;0;0;0;0;6;0;27240;2;0;0;0;0;0;7;0;25151;0;0;0;0;8;0;24539;0;0;0;0;9;0;13025;0;0;0;0
21.11.20;18:20:00;1;279;6096;0;2;0;14916;0;0;0;0;3;0;9878;0;0;0;0;4;0;10976;0;0;0;0;5;0;0;0;0;0;0;0;0;6;0;27240;2;0;0;0;0;0;7;0;25151;0;0;0;0;8;0;24539;0;0;0;0;9;0;13025;0;0;0;0
21.11.20;18:15:00;1;299;6072;0;2;0;14916;0;0;0;0;3;0;9878;0;0;0;0;4;0;10976;0;0;0;0;5;0;0;0;0;0;0;0;0;6;0;27240;2;0;0;0;0;0;7;0;25151;0;0;0;0;8;0;24539;0;0;0;0;9;0;13025;0;0;0;0
21.11.20;18:10:00;1;320;6047;0;2;0;14916;0;0;0;0;3;0;9878;0;0;0;0;4;0;10976;0;0;0;0;5;0;0;0;0;0;0;0;0;6;0;27240;2;0;0;0;0;0;7;0;25151;0;0;0;0;8;0;24539;0;0;0;0;9;0;13025;0;0;0;0
21.11.20;18:05:00;1;352;6021;0;2;0;14916;0;0;0;0;3;0;9878;0;0;0;0;4;0;10976;0;0;0;0;5;0;0;0;0;0;0;0;0;6;0;27240;2;0;0;0;0;0;7;0;25151;0;0;0;0;8;0;24539;0;0;0;0;9;0;13025;0;0;0;0
21.11.20;18:00:00;1;299;5992;0;2;0;14916;0;0;0;0;3;0;9878;0;0;0;0;4;0;10976;0;0;0;0;5;0;0;0;0;0;0;0;0;6;0;27240;2;0;0;0;0;0;7;0;25151;0;0;0;0;8;0;24539;0;0;0;0;9;0;13025;0;0;0;0
21.11.20;17:55:00;1;314;5966;0;2;0;14916;0;0;0;0;3;0;9878;0;0;0;0;4;0;10976;0;0;0;0;5;0;0;0;0;0;0;0;0;6;0;27240;2;0;0;0;0;0;7;0;25151;0;0;0;0;8;0;24539;0;0;0;0;9;0;13025;0;0;0;0
21.11.20;17:50:00;1;329;5940;0;2;0;14916;0;0;0;0;3;0;9878;0;0;0;0;4;0;10976;0;0;0;0;5;0;0;0;0;0;0;0;0;6;0;27240;2;0;0;0;0;0;7;0;25151;0;0;0;0;8;0;24539;0;0;0;0;9;0;13025;0;0;0;0
21.11.20;17:45:00;1;323;5912;0;2;0;14916;0;0;0;0;3;0;9878;0;0;0;0;4;0;10976;0;0;0;0;5;0;0;0;0;0;0;0;0;6;0;27240;2;0;0;0;0;0;7;0;25151;0;0;0;0;8;0;24539;0;0;0;0;9;0;13025;0;0;0;0
21.11.20;17:40:00;1;301;5885;0;2;0;14916;0;0;0;0;3;0;9878;0;0;0;0;4;0;10976;0;0;0;0;5;0;0;0;0;0;0;0;0;6;0;27240;2;0;0;0;0;0;7;0;25151;0;0;0;0;8;0;24539;0;0;0;0;9;0;13025;0;0;0;0
21.11.20;17:35:00;1;259;5860;0;2;0;14916;0;0;0;0;3;0;9878;0;0;0;0;4;0;10976;0;0;0;0;5;0;0;0;0;0;0;0;0;6;0;27240;2;0;0;0;0;0;7;0;25151;0;0;0;0;8;0;24539;0;0;0;0;9;0;13025;0;0;0;0
21.11.20;17:30:00;1;259;5838;0;2;0;14916;0;0;0;0;3;0;9878;0;0;0;0;4;0;10976;0;0;0;0;5;0;0;0;0;0;0;0;0;6;0;27240;2;0;0;0;0;0;7;0;25151;0;0;0;0;8;0;24539;0;0;0;0;9;0;13025;0;0;0;0
21.11.20;17:25:00;1;341;5817;0;2;0;14916;0;0;0;0;3;0;9878;0;0;0;0;4;0;10976;0;0;0;0;5;0;0;0;0;0;0;0;0;6;0;27240;2;0;0;0;0;0;7;0;25151;0;0;0;0;8;0;24539;0;0;0;0;9;0;13025;0;0;0;0
21.11.20;17:20:00;1;314;5789;0;2;0;14916;0;0;0;0;3;0;9878;0;0;0;0;4;0;10976;0;0;0;0;5;0;0;0;0;0;0;0;0;6;0;27240;2;0;0;0;0;0;7;0;25151;0;0;0;0;8;0;24539;0;0;0;0;9;0;13025;0;0;0;0
21.11.20;17:15:00;1;304;5763;0;2;0;14916;0;0;0;0;3;0;9878;0;0;0;0;4;0;10976;0;0;0;0;5;0;0;0;0;0;0;0;0;6;0;27240;2;0;0;0;0;0;7;0;25151;0;0;0;0;8;0;24539;0;0;0;0;9;0;13025;0;0;0;0
21.11.20;17:10:00;1;305;5737;0;2;0;14916;0;0;0;0;3;0;9878;0;0;0;0;4;0;10976;0;0;0;0;5;0;0;0;0;0;0;0;0;6;0;27240;2;0;0;0;0;0;7;0;25151;0;0;0;0;8;0;24539;0;0;0;0;9;0;13025;0;0;0;0
21.11.20;17:05:00;1;285;5712;0;2;0;14916;0;0;0;0;3;0;9878;0;0;0;0;4;0;10976;0;0;0;0;5;0;0;0;0;0;0;0;0;6;0;27240;2;0;0;0;0;0;7;0;25151;0;0;0;0;8;0;24539;0;0;0;0;9;0;13025;0;0;0;0
21.11.20;17:00:00;1;266;5689;0;2;0;14916;0;0;0;0;3;0;9878;0;0;0;0;4;0;10976;0;0;0;0;5;0;0;0;0;0;0;0;0;6;0;27240;2;0;0;0;0;0;7;0;25151;0;0;0;0;8;0;24539;0;0;0;0;9;0;13025;0;0;0;0
21.11.20;16:55:00;1;305;5667;0;2;0;14916;0;0;0;0;3;0;9878;0;0;35;2;4;0;10976;0;0;0;0;5;0;0;0;0;0;0;0;0;6;0;27240;2;0;0;0;0;0;7;0;25151;0;0;0;0;8;0;24539;0;0;0;0;9;0;13025;0;0;0;0
21.11.20;16:50:00;1;296;5641;0;2;0;14916;0;0;237;13;3;0;9878;6;0;294;17;4;0;10976;0;0;0;0;5;0;0;0;0;0;0;0;0;6;0;27240;2;0;0;0;0;0;7;0;25151;0;0;0;0;8;0;24539;0;0;0;0;9;0;13025;0;0;0;0
21.11.20;16:45:00;1;315;5617;0;2;0;14916;6;0;309;15;3;0;9878;6;0;355;17;4;0;10976;0;0;41;8;5;0;0;0;0;0;0;0;0;6;0;27240;2;0;0;0;0;0;7;0;25151;0;0;0;0;8;0;24539;0;0;0;0;9;0;13025;0;0;0;0
21.11.20;16:40:00;1;255;5591;0;2;0;14916;6;0;358;15;3;0;9878;4;2;417;18;4;0;10976;1;0;107;12;5;0;0;0;0;0;0;0;0;6;0;27240;2;5;3;134;308;20;7;0;25151;0;0;175;13;8;0;24539;0;0;136;9;9;0;13025;0;0;140;7
21.11.20;16:35:00;1;280;5569;0;2;0;14916;6;0;387;16;3;1;9878;3;4;447;18;4;0;10976;1;0;163;13;5;0;0;0;0;0;0;0;0;6;0;27240;23;5;5;280;481;24;7;0;25151;6;0;348;20;8;0;24539;6;0;345;19;9;0;13025;6;0;352;14
21.11.20;16:30:00;1;341;5546;0;2;0;14916;6;0;395;16;3;1;9877;6;5;456;18;4;0;10976;1;0;180;13;5;0;0;0;0;0;0;0;0;6;0;27240;23;2;10;444;307;25;7;0;25151;6;0;380;20;8;0;24539;6;0;376;20;9;0;13025;6;0;388;15
21.11.20;16:25:00;1;352;5517;0;2;0;14916;6;0;406;17;3;2;9877;6;6;471;18;4;0;10976;1;0;206;14;5;0;0;0;0;0;0;0;0;6;0;27240;23;5;5;258;576;25;7;0;25151;6;1;410;21;8;0;24539;6;0;423;20;9;0;13025;6;0;426;15
21.11.20;16:20:00;1;274;5487;0;2;0;14916;6;0;423;18;3;0;9877;6;10;491;19;4;0;10976;3;0;224;14;5;0;0;0;0;0;0;0;0;6;42;27240;1;8;31;519;497;26;7;2;25151;6;4;462;22;8;1;24539;3;6;427;21;9;0;13025;6;1;499;16
21.11.20;16:15:00;1;260;5463;0;2;50;14916;4;83;370;19;3;5;9877;6;16;510;19;4;6;10976;3;6;199;15;5;0;0;0;0;0;0;0;0;6;81;27237;4;26;58;502;479;27;7;21;25151;6;34;445;22;8;13;24539;6;22;461;21;9;0;13025;6;4;537;16
21.11.20;16:10:00;1;220;5442;0;2;87;14912;4;121;369;19;3;6;9877;6;10;549;20;4;39;10975;3;41;198;15;5;0;0;0;0;0;0;0;0;6;117;27230;4;40;65;502;478;27;7;67;25149;4;105;432;23;8;53;24538;4;99;423;22;9;8;13025;4;14;538;16
21.11.20;16:05:00;1;220;5423;0;2;136;14904;4;172;377;20;3;73;9876;4;113;484;20;4;72;10972;3;75;202;15;5;0;0;0;0;0;0;0;0;6;165;27219;4;64;90;503;478;27;7;125;25143;4;161;439;23;8;109;24533;4;146;428;22;9;10;13024;6;15;570;17
21.11.20;16:00:00;1;252;5405;0;2;289;14893;4;331;390;21;3;128;9870;4;170;494;21;4;148;10966;5;154;233;15;5;0;0;0;0;0;0;0;0;6;239;27205;4;113;143;502;482;27;7;233;25133;4;272;475;23;8;188;24524;4;227;462;23;9;85;13023;4;118;497;18
21.11.20;15:55:00;1;240;5384;0;2;927;14869;4;991;397;22;3;423;9859;4;471;466;21;4;259;10954;5;270;224;16;5;0;0;0;0;0;0;0;0;6;408;27185;4;173;261;502;581;27;7;319;25113;4;361;481;24;8;256;24508;4;301;485;23;9;111;13016;4;146;519;18
21.11.20;15:50:00;1;221;5363;0;2;459;14792;4;505;385;21;3;219;9825;4;263;527;21;4;239;10932;5;249;238;16;5;0;0;0;0;0;0;0;0;6;420;27148;4;191;253;501;566;27;7;372;25087;4;422;483;24;8;289;24487;4;334;479;23;9;116;13007;4;151;525;18
21.11.20;15:45:00;1;220;5345;0;2;349;14753;4;396;398;22;3;185;9807;4;226;445;22;4;220;10912;5;229;239;16;5;0;0;0;0;0;0;0;0;6;377;27114;4;178;210;526;555;28;7;380;25056;4;424;483;25;8;288;24463;4;331;475;24;9;124;12997;4;160;529;19
21.11.20;15:40:00;1;232;5327;0;2;462;14724;4;511;384;23;3;246;9791;4;284;414;22;4;260;10893;5;271;243;16;5;0;0;0;0;0;0;0;0;6;482;27082;4;206;235;582;566;28;7;520;25024;4;580;486;25;8;333;24439;4;371;401;24;9;145;12987;4;183;529;19
21.11.20;15:35:00;1;263;5307;0;2;508;14685;4;558;398;24;3;275;9771;4;314;422;23;4;281;10871;5;292;239;16;5;0;0;0;0;0;0;0;0;6;534;27041;4;275;309;582;568;28;7;590;24980;4;640;487;26;8;396;24411;4;434;400;25;9;158;12975;4;197;541;20
21.11.20;15:30:00;1;354;5285;0;2;1296;14643;4;1371;399;25;3;708;9748;4;763;443;23;4;412;10848;5;429;237;17;5;0;0;0;0;0;0;0;0;6;1155;26993;4;573;590;609;583;28;7;1289;24931;4;1368;512;26;8;810;24378;4;862;401;26;9;168;12961;4;205;509;20
21.11.20;15:25:00;1;304;5256;0;2;680;14535;4;737;387;25;3;371;9689;4;416;435;23;4;280;10814;5;291;243;17;5;0;0;0;0;0;0;0;0;6;664;26897;4;338;365;592;571;28;7;781;24824;4;837;498;27;8;584;24311;4;632;422;26;9;124;12947;4;152;388;21
21.11.20;15:20:00;1;262;5230;0;2;1073;14478;4;1143;393;27;3;585;9658;4;638;446;24;4;329;10790;5;343;215;17;5;0;0;0;0;0;0;0;0;6;1017;26841;4;515;536;598;579;28;7;1126;24759;4;1189;496;28;8;1161;24262;4;1221;417;27;9;186;12937;4;216;353;22
21.11.20;15:15:00;1;281;5210;0;2;1195;14389;4;1271;389;28;3;645;9609;4;701;448;24;4;364;10763;5;379;214;17;5;0;0;0;0;0;0;0;0;6;1162;26755;4;613;635;600;579;29;7;1655;24665;4;1747;491;28;8;1428;24166;4;1501;442;28;9;368;12921;4;405;355;22
21.11.20;15:10:00;1;313;5186;0;2;1731;14289;4;1830;390;29;3;975;9555;4;1040;436;25;4;460;10732;5;479;226;18;5;0;0;0;0;0;0;0;0;6;1724;26654;4;867;866;606;584;29;7;2554;24526;4;2678;487;29;8;2357;24045;4;2470;462;28;9;808;12890;4;857;354;24
21.11.20;15:05:00;1;292;5160;0;2;1909;14144;4;2014;394;29;3;1077;9474;4;1145;435;26;4;510;10694;5;531;227;18;5;0;0;0;0;0;0;0;0;6;1937;26509;4;979;983;605;579;29;7;2843;24314;4;2973;493;29;8;2671;23850;4;2797;468;28;9;1037;12823;4;1098;377;24
21.11.20;15:00:00;1;270;5136;0;2;2062;13984;4;2178;390;30;3;1170;9384;4;1240;432;26;4;558;10651;5;581;230;18;5;0;0;0;0;0;0;0;0;6;2178;26344;4;1098;1092;607;583;29;7;2941;24076;4;3088;494;29;8;2956;23625;4;3104;483;29;9;1229;12736;4;1300;413;25
21.11.20;14:55:00;1;243;5113;0;2;2091;13813;4;2209;399;30;3;1179;9286;4;1253;436;26;4;588;10605;5;612;239;19;5;0;0;0;0;0;0;0;0;6;2272;26162;4;1171;1161;611;586;29;7;3015;23831;4;3169;498;29;8;2788;23379;4;2923;469;29;9;1347;12634;4;1425;454;26
21.11.20;14:50:00;1;260;5093;0;2;2226;13638;4;2350;413;31;3;1221;9188;4;1296;446;27;4;611;10556;5;637;228;19;5;0;0;0;0;0;0;0;0;6;2360;25972;4;1206;1203;610;585;29;7;3177;23578;4;3334;492;30;8;2725;23152;4;2861;502;29;9;1244;12522;4;1320;490;27
21.11.20;14:45:00;1;258;5068;0;2;2394;13453;4;2529;416;31;3;1394;9086;4;1478;473;27;4;666;10505;5;693;231;19;5;0;0;0;0;0;0;0;0;6;2584;25776;4;1336;1317;608;582;29;7;3421;23313;4;3574;498;30;8;3043;22923;4;3195;486;30;9;1614;12419;4;1708;506;28
21.11.20;14:40:00;1;286;5047;0;2;2447;13253;4;2583;412;32;3;1492;8970;4;1584;497;28;4;687;10450;5;716;230;20;5;0;0;0;0;0;0;0;0;6;2702;25559;4;1386;1353;604;585;29;7;3246;23027;4;3413;490;30;8;3383;22665;4;3542;485;30;9;1737;12284;4;1843;539;28
21.11.20;14:35:00;1;307;5023;0;2;2553;13049;4;2693;414;32;3;1619;8846;4;1717;509;28;4;728;10392;5;758;230;20;5;0;0;0;0;0;0;0;0;6;2888;25333;4;1474;1454;603;585;30;7;3644;22756;4;3828;479;30;8;3557;22383;4;3724;478;30;9;1939;12138;4;2056;538;29
21.11.20;14:30:00;1;363;4997;0;2;2689;12842;4;2837;413;33;3;1743;8714;4;1848;523;28;4;804;10333;5;837;246;20;5;0;0;0;0;0;0;0;0;6;3104;25095;4;1587;1561;607;587;30;7;3850;22461;4;4039;490;30;8;3851;22096;4;4042;486;30;9;2102;11981;4;2221;532;29
21.11.20;14:25:00;1;275;4964;0;2;2776;12611;4;2926;412;33;3;1794;8565;4;1901;525;29;4;882;10265;5;919;253;20;5;0;0;0;0;0;0;0;0;6;3191;24830;4;1625;1601;605;585;30;7;4036;22130;4;4235;478;31;8;4007;21766;4;4192;478;30;9;2178;11801;4;2307;529;29
21.11.20;14:20:00;1;275;4941;0;2;2640;12380;4;2782;409;33;3;1706;8415;4;1810;517;29;4;849;10191;5;884;242;21;5;0;0;0;0;0;0;0;0;6;3168;24559;4;1625;1591;607;580;30;7;3778;21796;4;3968;468;31;8;3528;21433;4;3699;481;30;9;1858;11620;4;1974;541;29
21.11.20;14:15:00;1;317;4918;0;2;2932;12160;4;3096;417;34;3;1907;8273;4;2018;517;29;4;932;10120;5;971;238;21;5;0;0;0;0;0;0;0;0;6;3588;24294;4;1862;1819;603;585;30;7;4189;21481;4;4383;476;31;8;4097;21139;4;4298;480;30;9;1994;11465;4;2116;522;29
21.11.20;14:10:00;1;322;4891;0;2;2952;11916;4;3117;415;33;3;1911;8115;4;2026;521;29;4;967;10043;5;1007;231;21;5;0;0;0;0;0;0;0;0;6;3665;23994;4;1876;1843;604;586;30;7;4095;21134;4;4297;481;31;8;4251;20800;4;4457;479;30;9;2055;11302;4;2176;526;29
21.11.20;14:05:00;1;277;4865;0;2;2993;11671;4;3156;414;33;3;1946;7955;4;2061;521;29;4;1027;9962;5;1070;228;22;5;0;0;0;0;0;0;0;0;6;3841;23688;4;1998;1961;607;585;30;7;4080;20795;4;4278;480;31;8;3948;20449;4;4146;472;31;9;2041;11132;4;2160;539;29
21.11.20;14:00:00;1;368;4841;0;2;2391;11423;4;2525;417;33;3;1552;7794;4;1654;527;29;4;958;9877;5;998;241;22;5;0;0;0;0;0;0;0;0;6;3101;23372;4;1610;1583;605;586;30;7;3552;20447;4;3732;489;31;8;3539;20112;4;3717;478;31;9;1954;10956;4;2074;529;30
21.11.20;13:55:00;1;348;4810;0;2;2279;11220;4;2410;417;33;3;1470;7663;4;1564;525;29;4;1014;9797;5;1056;246;22;5;0;0;0;0;0;0;0;0;6;3019;23112;4;1532;1504;608;584;30;7;3370;20147;4;3546;486;32;8;3338;19813;4;3508;483;32;9;1822;10791;4;1937;536;30